QPF
0.02 0.01 0.01 0.02 0.04 0.04 0.04 0.04 0.05 0.08 0.09 0.10 0.12 0.13 0.12 0.10 0.09 0.07 0.06 0.06 0.05 0.04 0.03 0.03 0.03 0.03 0.04 0.08 0.10 0.09 0.09 0.09 0.09 0.10 0.13 0.16 0.17 0.13 0.11 0.09 0.08 0.06 0.04
0.01 0.01 0.01 0.02 0.03 0.03 0.04 0.07 0.09 0.12 0.12 0.12 0.12 0.11 0.09 0.09 0.08 0.10 0.10 0.08 0.06 0.05 0.03 0.03 0.03 0.03 0.03 0.04 0.07 0.10 0.12 0.12 0.11 0.09 0.10 0.13 0.16 0.14 0.10 0.08 0.07 0.04 0.04
0.01 0.01 0.01 0.02 0.04 0.03 0.06 0.11 0.14 0.16 0.17 0.17 0.13 0.09 0.08 0.08 0.09 0.09 0.08 0.07 0.05 0.04 0.04 0.04 0.04 0.04 0.03 0.04 0.06 0.08 0.10 0.12 0.13 0.11 0.10 0.11 0.11 0.12 0.11 0.08 0.06 0.04 0.04
0.01 0.01 0.01 0.03 0.03 0.04 0.08 0.11 0.17 0.19 0.19 0.16 0.11 0.11 0.12 0.11 0.08 0.06 0.05 0.05 0.05 0.05 0.04 0.04 0.04 0.03 0.04 0.04 0.05 0.05 0.05 0.07 0.10 0.11 0.11 0.10 0.10 0.10 0.10 0.08 0.05 0.04 0.03
0.01 0.02 0.02 0.02 0.03 0.05 0.07 0.09 0.13 0.15 0.15 0.13 0.13 0.14 0.13 0.09 0.06 0.05 0.06 0.06 0.06 0.06 0.05 0.04 0.04 0.04 0.04 0.04 0.04 0.05 0.05 0.06 0.08 0.09 0.11 0.12 0.12 0.10 0.09 0.08 0.05 0.03 0.02
0.03 0.02 0.02 0.02 0.03 0.06 0.08 0.09 0.11 0.12 0.09 0.06 0.07 0.09 0.07 0.04 0.05 0.07 0.08 0.07 0.06 0.06 0.05 0.04 0.04 0.04 0.04 0.04 0.05 0.06 0.07 0.07 0.07 0.07 0.07 0.07 0.08 0.08 0.07 0.06 0.06 0.04 0.02
0.05 0.04 0.03 0.04 0.06 0.07 0.05 0.05 0.05 0.04 0.03 0.03 0.03 0.04 0.03 0.02 0.04 0.05 0.04 0.03 0.03 0.03 0.04 0.05 0.06 0.05 0.05 0.04 0.05 0.06 0.06 0.06 0.05 0.05 0.05 0.05 0.06 0.07 0.06 0.05 0.05 0.04 0.02
0.03 0.03 0.05 0.05 0.05 0.03 0.02 0.03 0.03 0.03 0.03 0.03 0.03 0.02 0.02 0.01 0.02 0.01 0.01 0.01 0.01 0.02 0.03 0.05 0.06 0.07 0.08 0.08 0.07 0.08 0.08 0.07 0.07 0.05 0.04 0.05 0.05 0.06 0.06 0.05 0.05 0.04 0.03
0.02 0.03 0.02 0.02 0.02 0.02 0.03 0.03 0.04 0.04 0.04 0.04 0.03 0.02 0.01 0.01 0.01 0.01 0.01 0.01 0.01 0.03 0.03 0.03 0.05 0.08 0.11 0.13 0.13 0.12 0.11 0.09 0.07 0.06 0.06 0.04 0.03 0.03 0.04 0.04 0.05 0.05 0.03
0.03 0.02 0.02 0.01 0.02 0.02 0.04 0.06 0.07 0.06 0.05 0.05 0.05 0.04 0.02 0.02 0.02 0.02 0.02 0.02 0.02 0.02 0.03 0.05 0.05 0.06 0.07 0.10 0.12 0.12 0.10 0.07 0.06 0.06 0.07 0.05 0.03 0.03 0.04 0.04 0.04 0.04 0.03
0.03 0.02 0.02 0.02 0.02 0.02 0.02 0.03 0.05 0.08 0.09 0.07 0.05 0.05 0.03 0.02 0.02 0.02 0.01 0.02 0.02 0.02 0.04 0.05 0.05 0.06 0.06 0.07 0.07 0.05 0.04 0.04 0.06 0.07 0.07 0.07 0.05 0.03 0.03 0.04 0.04 0.03 0.02
0.02 0.02 0.01 0.01 0.02 0.02 0.02 0.03 0.04 0.06 0.06 0.06 0.05 0.03 0.03 0.02 0.02 0.02 0.02 0.03 0.02 0.02 0.03 0.04 0.04 0.04 0.05 0.05 0.05 0.05 0.04 0.04 0.05 0.07 0.06 0.06 0.04 0.02 0.02 0.03 0.02 0.02 0.02
0.02 0.02 0.01 0.02 0.03 0.06 0.07 0.05 0.05 0.05 0.04 0.03 0.03 0.02 0.02 0.03 0.04 0.03 0.03 0.03 0.03 0.02 0.02 0.03 0.04 0.04 0.04 0.03 0.04 0.04 0.04 0.05 0.07 0.07 0.05 0.04 0.04 0.02 0.02 0.03 0.02 0.02 0.03
0.01 0.01 0.02 0.02 0.05 0.12 0.12 0.05 0.05 0.04 0.03 0.03 0.04 0.04 0.03 0.04 0.05 0.05 0.04 0.03 0.03 0.03 0.03 0.04 0.06 0.05 0.05 0.05 0.05 0.05 0.05 0.05 0.06 0.07 0.05 0.04 0.04 0.03 0.03 0.03 0.03 0.03 0.04
0.01 0.02 0.02 0.03 0.04 0.05 0.05 0.03 0.04 0.03 0.02 0.02 0.02 0.02 0.02 0.02 0.03 0.04 0.04 0.04 0.04 0.04 0.04 0.04 0.05 0.06 0.06 0.06 0.06 0.05 0.06 0.06 0.06 0.06 0.06 0.06 0.05 0.05 0.05 0.05 0.05 0.04 0.03
0.01 0.02 0.03 0.02 0.02 0.03 0.02 0.01 0.02 0.02 0.01 0.01 0.01 0.01 0.02 0.02 0.02 0.02 0.03 0.04 0.04 0.04 0.05 0.06 0.07 0.07 0.06 0.06 0.08 0.09 0.09 0.10 0.09 0.09 0.08 0.08 0.07 0.06 0.05 0.05 0.05 0.04 0.03
0.02 0.02 0.02 0.02 0.01 0.01 0.01 0.01 0.01 0.01 0.01 0.01 0.02 0.02 0.02 0.02 0.01 0.02 0.02 0.03 0.02 0.02 0.03 0.05 0.06 0.09 0.10 0.10 0.09 0.08 0.07 0.07 0.07 0.07 0.06 0.05 0.03 0.03 0.03 0.03 0.03 0.03 0.03
0.02 0.02 0.01 0.01 0.01 0.01 0.01 0.01 0.01 0.01 0.02 0.02 0.02 0.02 0.01 0.01 0.01 0.01 0.01 0.00 0.01 0.01 0.01 0.03 0.04 0.04 0.06 0.06 0.06 0.05 0.04 0.03 0.03 0.03 0.03 0.03 0.02 0.03 0.03 0.03 0.02 0.01 0.01
0.02 0.03 0.01 0.01 0.01 0.00 0.00 0.01 0.01 0.01 0.01 0.02 0.02 0.02 0.02 0.01 0.00 0.00 0.00 0.01 0.01 0.01 0.02 0.04 0.04 0.03 0.04 0.03 0.03 0.04 0.03 0.02 0.02 0.01 0.02 0.02 0.02 0.02 0.02 0.02 0.02 0.02 0.01
0.01 0.02 0.02 0.01 0.01 0.00 0.00 0.00 0.01 0.01 0.00 0.01 0.01 0.01 0.01 0.01 0.00 0.00 0.00 0.01 0.01 0.02 0.03 0.04 0.04 0.04 0.05 0.03 0.02 0.02 0.02 0.02 0.02 0.02 0.02 0.02 0.02 0.03 0.02 0.02 0.03 0.03 0.03
0.01 0.01 0.01 0.01 0.01 0.01 0.00 0.00 0.00 0.00 0.00 0.00 0.00 0.00 0.01 0.01 0.01 0.00 0.01 0.01 0.01 0.01 0.01 0.02 0.04 0.04 0.05 0.03 0.01 0.01 0.01 0.01 0.01 0.02 0.02 0.02 0.03 0.03 0.04 0.04 0.04 0.04 0.06
0.00 0.01 0.01 0.01 0.01 0.01 0.00 0.00 0.00 0.00 0.00 0.00 0.00 0.00 0.00 0.00 0.00 0.00 0.01 0.01 0.01 0.01 0.01 0.02 0.03 0.04 0.04 0.02 0.01 0.01 0.01 0.02 0.02 0.02 0.02 0.02 0.02 0.03 0.04 0.04 0.05 0.05 0.05
0.00 0.00 0.00 0.01 0.00 0.00 0.00 0.00 0.00 0.00 0.00 0.00 0.00 0.00 0.00 0.00 0.00 0.00 0.00 0.00 0.01 0.01 0.01 0.01 0.02 0.02 0.02 0.02 0.02 0.02 0.02 0.02 0.02 0.01 0.01 0.01 0.01 0.02 0.02 0.03 0.04 0.04 0.04
0.00 0.00 0.00 0.00 0.00 0.00 0.00 0.00 0.00 0.00 0.00 0.00 0.00 0.00 0.00 0.00 0.00 0.00 0.00 0.00 0.00 0.01 0.01 0.01 0.01 0.01 0.01 0.01 0.02 0.02 0.02 0.02 0.02 0.02 0.02 0.01 0.01 0.01 0.01 0.02 0.03 0.03 0.03
0.00 0.00 0.00 0.00 0.00 0.00 0.00 0.00 0.00 0.00 0.00 0.00 0.00 0.00 0.00 0.00 0.00 0.00 0.00 0.00 0.00 0.00 0.00 0.00 0.00 0.00 0.00 0.00 0.01 0.01 0.01 0.01 0.01 0.01 0.02 0.02 0.02 0.02 0.02 0.02 0.02 0.02 0.03
0.00 0.00 0.00 0.00 0.00 0.00 0.00 0.00 0.00 0.00 0.00 0.00 0.00 0.00 0.00 0.00 0.00 0.01 0.00 0.00 0.00 0.00 0.00 0.00 0.00 0.00 0.00 0.00 0.00 0.01 0.01 0.01 0.02 0.01 0.01 0.02 0.02 0.02 0.02 0.02 0.02 0.02 0.02
MSLP
1015.05 1014.86 1014.64 1014.37 1014.08 1013.78 1013.50 1013.29 1013.16 1013.14 1013.20 1013.35 1013.54 1013.76 1013.99 1014.20 1014.40 1014.60 1014.80 1015.03 1015.29 1015.58 1015.89 1016.21 1016.53 1016.81 1017.07 1017.30 1017.50 1017.69 1017.88 1018.06 1018.23 1018.38 1018.48 1018.52 1018.49 1018.39 1018.22 1018.00 1017.77 1017.55 1017.37
1015.57 1015.49 1015.35 1015.13 1014.87 1014.57 1014.30 1014.09 1013.99 1014.01 1014.14 1014.37 1014.65 1014.94 1015.21 1015.43 1015.60 1015.72 1015.82 1015.92 1016.04 1016.21 1016.40 1016.63 1016.87 1017.11 1017.34 1017.55 1017.73 1017.91 1018.08 1018.25 1018.41 1018.54 1018.65 1018.70 1018.68 1018.59 1018.44 1018.24 1018.02 1017.79 1017.60
1015.85 1015.89 1015.85 1015.72 1015.51 1015.26 1015.01 1014.82 1014.74 1014.80 1014.99 1015.28 1015.62 1015.97 1016.27 1016.49 1016.62 1016.68 1016.69 1016.67 1016.68 1016.72 1016.82 1016.96 1017.14 1017.34 1017.54 1017.73 1017.90 1018.06 1018.22 1018.36 1018.50 1018.63 1018.73 1018.79 1018.79 1018.74 1018.62 1018.45 1018.25 1018.03 1017.82
1015.88 1016.04 1016.13 1016.10 1015.98 1015.78 1015.56 1015.40 1015.34 1015.43 1015.64 1015.97 1016.36 1016.74 1017.06 1017.29 1017.40 1017.41 1017.35 1017.25 1017.17 1017.13 1017.15 1017.24 1017.37 1017.54 1017.72 1017.89 1018.05 1018.20 1018.32 1018.44 1018.56 1018.67 1018.77 1018.84 1018.87 1018.85 1018.77 1018.64 1018.47 1018.27 1018.05
1015.72 1016.00 1016.21 1016.30 1016.26 1016.13 1015.96 1015.82 1015.77 1015.86 1016.09 1016.43 1016.83 1017.23 1017.57 1017.80 1017.91 1017.90 1017.80 1017.67 1017.54 1017.46 1017.44 1017.50 1017.61 1017.76 1017.93 1018.09 1018.23 1018.34 1018.44 1018.53 1018.61 1018.70 1018.79 1018.87 1018.92 1018.94 1018.91 1018.83 1018.70 1018.52 1018.30
1015.46 1015.85 1016.17 1016.37 1016.43 1016.36 1016.23 1016.11 1016.06 1016.14 1016.35 1016.68 1017.07 1017.47 1017.82 1018.06 1018.18 1018.18 1018.10 1017.96 1017.83 1017.74 1017.72 1017.77 1017.88 1018.02 1018.18 1018.32 1018.43 1018.52 1018.58 1018.63 1018.68 1018.74 1018.81 1018.89 1018.97 1019.03 1019.05 1019.01 1018.92 1018.77 1018.56
1015.19 1015.68 1016.11 1016.41 1016.55 1016.55 1016.46 1016.34 1016.29 1016.34 1016.52 1016.81 1017.18 1017.57 1017.92 1018.17 1018.31 1018.34 1018.29 1018.18 1018.08 1018.01 1018.00 1018.06 1018.17 1018.31 1018.45 1018.58 1018.66 1018.71 1018.74 1018.74 1018.75 1018.78 1018.84 1018.92 1019.02 1019.11 1019.17 1019.19 1019.15 1019.04 1018.86
1014.99 1015.56 1016.08 1016.47 1016.68 1016.74 1016.68 1016.58 1016.51 1016.53 1016.67 1016.92 1017.26 1017.63 1017.96 1018.23 1018.39 1018.46 1018.44 1018.38 1018.32 1018.28 1018.29 1018.36 1018.47 1018.61 1018.74 1018.83 1018.89 1018.91 1018.89 1018.86 1018.83 1018.84 1018.88 1018.95 1019.06 1019.18 1019.29 1019.37 1019.38 1019.32 1019.17
1014.92 1015.54 1016.12 1016.57 1016.84 1016.95 1016.92 1016.83 1016.76 1016.76 1016.87 1017.08 1017.38 1017.72 1018.05 1018.32 1018.50 1018.59 1018.61 1018.58 1018.55 1018.54 1018.57 1018.65 1018.76 1018.88 1018.99 1019.07 1019.09 1019.08 1019.03 1018.96 1018.91 1018.89 1018.92 1019.00 1019.12 1019.27 1019.42 1019.54 1019.61 1019.61 1019.51
1014.94 1015.60 1016.21 1016.69 1017.00 1017.14 1017.15 1017.08 1017.02 1017.02 1017.11 1017.30 1017.57 1017.89 1018.20 1018.46 1018.64 1018.75 1018.79 1018.80 1018.79 1018.79 1018.83 1018.91 1019.01 1019.11 1019.20 1019.25 1019.25 1019.21 1019.14 1019.06 1018.99 1018.96 1018.98 1019.06 1019.20 1019.37 1019.55 1019.72 1019.84 1019.90 1019.87
1015.03 1015.67 1016.28 1016.76 1017.09 1017.25 1017.29 1017.26 1017.23 1017.24 1017.35 1017.54 1017.80 1018.09 1018.38 1018.63 1018.81 1018.93 1018.98 1018.99 1018.99 1019.00 1019.04 1019.10 1019.19 1019.28 1019.35 1019.38 1019.37 1019.32 1019.24 1019.15 1019.08 1019.05 1019.07 1019.16 1019.31 1019.49 1019.70 1019.90 1020.07 1020.18 1020.21
1015.10 1015.70 1016.26 1016.71 1017.02 1017.19 1017.26 1017.28 1017.29 1017.36 1017.49 1017.70 1017.97 1018.26 1018.54 1018.78 1018.95 1019.06 1019.11 1019.12 1019.12 1019.14 1019.17 1019.23 1019.31 1019.38 1019.44 1019.47 1019.46 1019.41 1019.33 1019.26 1019.20 1019.18 1019.21 1019.30 1019.45 1019.65 1019.87 1020.09 1020.28 1020.43 1020.52
1015.09 1015.60 1016.08 1016.47 1016.75 1016.92 1017.02 1017.08 1017.16 1017.29 1017.48 1017.73 1018.02 1018.32 1018.60 1018.83 1018.99 1019.09 1019.14 1019.16 1019.17 1019.19 1019.23 1019.29 1019.37 1019.44 1019.50 1019.53 1019.53 1019.49 1019.44 1019.38 1019.35 1019.34 1019.39 1019.48 1019.63 1019.82 1020.03 1020.25 1020.46 1020.62 1020.74
1014.95 1015.36 1015.73 1016.04 1016.27 1016.43 1016.56 1016.68 1016.83 1017.03 1017.28 1017.58 1017.90 1018.22 1018.50 1018.73 1018.89 1018.99 1019.05 1019.09 1019.11 1019.15 1019.21 1019.29 1019.38 1019.46 1019.53 1019.58 1019.59 1019.58 1019.55 1019.52 1019.51 1019.52 1019.57 1019.67 1019.81 1019.98 1020.17 1020.37 1020.56 1020.73 1020.87
1014.68 1014.98 1015.24 1015.46 1015.64 1015.79 1015.94 1016.12 1016.34 1016.61 1016.92 1017.27 1017.62 1017.95 1018.25 1018.48 1018.65 1018.77 1018.85 1018.91 1018.97 1019.05 1019.14 1019.24 1019.35 1019.46 1019.54 1019.60 1019.64 1019.64 1019.64 1019.64 1019.64 1019.68 1019.74 1019.83 1019.96 1020.10 1020.26 1020.43 1020.59 1020.74 1020.88
1014.31 1014.51 1014.68 1014.83 1014.97 1015.11 1015.29 1015.51 1015.79 1016.11 1016.48 1016.86 1017.23 1017.58 1017.87 1018.11 1018.29 1018.43 1018.55 1018.65 1018.76 1018.88 1019.02 1019.16 1019.30 1019.42 1019.52 1019.59 1019.63 1019.66 1019.67 1019.69 1019.72 1019.76 1019.83 1019.93 1020.03 1020.15 1020.28 1020.40 1020.53 1020.65 1020.77
1013.88 1014.02 1014.13 1014.24 1014.36 1014.51 1014.72 1014.98 1015.29 1015.66 1016.05 1016.44 1016.82 1017.16 1017.45 1017.69 1017.88 1018.05 1018.20 1018.35 1018.51 1018.68 1018.86 1019.04 1019.20 1019.33 1019.44 1019.51 1019.55 1019.58 1019.60 1019.63 1019.68 1019.74 1019.82 1019.92 1020.02 1020.12 1020.21 1020.31 1020.40 1020.49 1020.59
1013.44 1013.56 1013.66 1013.77 1013.91 1014.09 1014.32 1014.61 1014.96 1015.34 1015.73 1016.11 1016.46 1016.78 1017.05 1017.28 1017.48 1017.66 1017.85 1018.05 1018.26 1018.47 1018.69 1018.88 1019.05 1019.19 1019.28 1019.33 1019.37 1019.39 1019.41 1019.44 1019.50 1019.58 1019.68 1019.79 1019.90 1020.00 1020.08 1020.15 1020.22 1020.29 1020.37
1013.00 1013.15 1013.29 1013.45 1013.63 1013.86 1014.13 1014.45 1014.81 1015.18 1015.55 1015.90 1016.21 1016.48 1016.72 1016.93 1017.13 1017.33 1017.54 1017.77 1018.01 1018.26 1018.49 1018.69 1018.85 1018.96 1019.03 1019.06 1019.06 1019.07 1019.08 1019.13 1019.20 1019.31 1019.43 1019.57 1019.69 1019.80 1019.89 1019.97 1020.03 1020.09 1020.17
1012.56 1012.79 1013.01 1013.24 1013.49 1013.78 1014.10 1014.45 1014.81 1015.17 1015.50 1015.80 1016.05 1016.28 1016.47 1016.66 1016.84 1017.05 1017.28 1017.52 1017.78 1018.04 1018.27 1018.46 1018.59 1018.67 1018.70 1018.69 1018.67 1018.66 1018.67 1018.72 1018.81 1018.94 1019.10 1019.27 1019.43 1019.57 1019.69 1019.77 1019.85 1019.92 1020.00
1012.10 1012.42 1012.74 1013.06 1013.40 1013.76 1014.13 1014.50 1014.86 1015.20 1015.49 1015.74 1015.95 1016.13 1016.28 1016.44 1016.62 1016.82 1017.05 1017.30 1017.56 1017.81 1018.02 1018.18 1018.28 1018.32 1018.31 1018.27 1018.23 1018.19 1018.20 1018.27 1018.38 1018.55 1018.74 1018.95 1019.15 1019.33 1019.47 1019.59 1019.69 1019.78 1019.88
1011.59 1012.00 1012.42 1012.83 1013.25 1013.68 1014.09 1014.49 1014.85 1015.17 1015.43 1015.65 1015.82 1015.97 1016.10 1016.25 1016.42 1016.61 1016.84 1017.09 1017.34 1017.57 1017.76 1017.88 1017.95 1017.95 1017.91 1017.84 1017.77 1017.74 1017.75 1017.83 1017.97 1018.16 1018.39 1018.63 1018.86 1019.08 1019.25 1019.40 1019.53 1019.65 1019.77
1011.01 1011.49 1011.98 1012.47 1012.95 1013.42 1013.88 1014.29 1014.66 1014.98 1015.23 1015.44 1015.60 1015.74 1015.87 1016.02 1016.20 1016.40 1016.62 1016.86 1017.10 1017.30 1017.46 1017.55 1017.59 1017.56 1017.50 1017.42 1017.36 1017.33 1017.36 1017.45 1017.61 1017.82 1018.06 1018.32 1018.57 1018.80 1019.00 1019.18 1019.33 1019.48 1019.63
1010.36 1010.88 1011.40 1011.92 1012.45 1012.95 1013.43 1013.86 1014.24 1014.57 1014.84 1015.05 1015.24 1015.40 1015.56 1015.73 1015.92 1016.13 1016.36 1016.59 1016.81 1016.99 1017.12 1017.19 1017.21 1017.17 1017.11 1017.04 1016.98 1016.97 1017.02 1017.12 1017.29 1017.50 1017.75 1018.00 1018.25 1018.48 1018.68 1018.86 1019.04 1019.21 1019.40
1009.68 1010.19 1010.71 1011.23 1011.76 1012.27 1012.75 1013.20 1013.60 1013.95 1014.24 1014.50 1014.73 1014.94 1015.14 1015.35 1015.57 1015.80 1016.03 1016.26 1016.46 1016.62 1016.73 1016.79 1016.80 1016.77 1016.72 1016.67 1016.64 1016.65 1016.71 1016.82 1016.99 1017.18 1017.40 1017.63 1017.84 1018.05 1018.23 1018.41 1018.59 1018.79 1019.02
1009.02 1009.48 1009.96 1010.46 1010.95 1011.45 1011.92 1012.37 1012.79 1013.16 1013.50 1013.81 1014.10 1014.36 1014.62 1014.87 1015.13 1015.38 1015.61 1015.83 1016.01 1016.16 1016.25 1016.31 1016.32 1016.30 1016.28 1016.26 1016.26 1016.29 1016.37 1016.48 1016.62 1016.79 1016.96 1017.13 1017.30 1017.46 1017.61 1017.78 1017.96 1018.19 1018.45
Thickness
5776 5776 5775 5773 5769 5765 5761 5758 5754 5751 5748 5745 5741 5737 5734 5733 5732 5731 5730 5729 5727 5726 5724 5723 5722 5722 5721 5720 5719 5717 5715 5713 5713 5710 5708 5710 5712 5712 5713 5713 5712 5711 5711
5770 5770 5770 5768 5764 5760 5757 5754 5751 5747 5745 5743 5740 5736 5733 5729 5728 5726 5725 5724 5723 5722 5720 5719 5719 5718 5717 5716 5715 5713 5710 5709 5709 5706 5702 5700 5702 5706 5709 5708 5708 5707 5707
5765 5764 5763 5762 5759 5756 5753 5752 5747 5744 5741 5739 5736 5732 5728 5725 5724 5722 5722 5721 5720 5719 5717 5716 5715 5714 5713 5712 5710 5709 5707 5704 5704 5703 5700 5695 5693 5696 5701 5703 5703 5703 5703
5761 5759 5757 5756 5754 5752 5750 5747 5743 5740 5738 5736 5733 5728 5723 5720 5719 5718 5717 5717 5716 5714 5713 5712 5711 5710 5709 5708 5707 5705 5704 5702 5699 5699 5698 5697 5696 5691 5691 5695 5697 5698 5699
5756 5754 5752 5751 5749 5747 5744 5741 5738 5735 5733 5731 5728 5724 5720 5718 5716 5715 5713 5712 5711 5710 5709 5708 5707 5706 5705 5704 5703 5702 5700 5699 5697 5695 5694 5692 5691 5690 5686 5685 5689 5692 5694
5750 5748 5747 5745 5743 5741 5738 5735 5731 5729 5727 5725 5723 5720 5716 5713 5711 5709 5707 5706 5705 5704 5704 5703 5702 5701 5700 5699 5698 5698 5697 5695 5694 5692 5691 5689 5687 5686 5684 5682 5682 5684 5688
5745 5742 5739 5738 5736 5734 5732 5729 5725 5723 5721 5720 5717 5714 5712 5709 5707 5704 5702 5700 5699 5698 5698 5697 5696 5695 5695 5694 5694 5692 5691 5690 5689 5688 5686 5686 5685 5685 5683 5680 5679 5679 5681
5740 5738 5736 5734 5731 5728 5725 5723 5720 5717 5716 5714 5711 5709 5706 5703 5701 5699 5697 5695 5694 5693 5693 5692 5691 5691 5690 5689 5688 5687 5686 5685 5684 5683 5682 5681 5681 5681 5680 5678 5675 5673 5674
5734 5733 5731 5729 5726 5723 5720 5719 5715 5712 5709 5708 5706 5703 5700 5698 5696 5694 5692 5690 5689 5689 5688 5687 5686 5685 5684 5683 5682 5681 5680 5679 5679 5678 5677 5676 5676 5676 5676 5674 5673 5670 5667
5728 5727 5725 5722 5719 5717 5715 5713 5711 5707 5704 5701 5699 5696 5693 5692 5690 5688 5685 5684 5683 5682 5681 5680 5679 5679 5678 5677 5676 5675 5674 5673 5673 5673 5671 5671 5671 5671 5670 5669 5669 5668 5666
5721 5720 5718 5716 5713 5711 5708 5706 5704 5701 5697 5694 5692 5689 5686 5685 5683 5681 5679 5678 5677 5676 5675 5674 5673 5672 5671 5671 5669 5669 5668 5667 5667 5667 5666 5666 5665 5665 5665 5665 5664 5663 5662
5716 5713 5711 5708 5706 5703 5701 5699 5696 5693 5690 5688 5684 5681 5679 5678 5676 5674 5673 5672 5670 5669 5668 5667 5667 5666 5665 5664 5663 5662 5662 5661 5660 5660 5660 5660 5660 5660 5660 5659 5659 5658 5658
5709 5706 5703 5700 5698 5696 5694 5692 5689 5687 5684 5681 5678 5675 5672 5670 5669 5667 5666 5665 5664 5662 5662 5661 5660 5659 5658 5658 5657 5656 5656 5655 5655 5654 5654 5654 5654 5654 5654 5654 5654 5654 5654
5702 5699 5696 5693 5691 5689 5688 5686 5683 5680 5677 5674 5671 5668 5665 5664 5662 5660 5659 5657 5656 5655 5654 5653 5653 5652 5651 5650 5650 5650 5649 5649 5648 5648 5648 5648 5648 5649 5649 5649 5649 5649 5648
5694 5692 5689 5686 5684 5682 5680 5678 5675 5673 5670 5666 5664 5661 5659 5657 5655 5653 5652 5650 5649 5648 5647 5646 5645 5645 5644 5643 5643 5642 5642 5642 5641 5642 5642 5642 5642 5643 5643 5644 5644 5644 5643
5688 5686 5683 5680 5678 5676 5674 5671 5668 5665 5663 5660 5656 5654 5652 5650 5648 5646 5645 5643 5642 5641 5640 5639 5638 5637 5637 5636 5635 5634 5634 5634 5635 5635 5635 5635 5636 5637 5637 5638 5639 5639 5638
5682 5679 5677 5674 5671 5669 5667 5664 5661 5659 5656 5653 5650 5647 5645 5643 5641 5640 5637 5636 5634 5633 5632 5631 5630 5629 5628 5627 5627 5627 5627 5627 5627 5628 5628 5629 5631 5631 5631 5632 5633 5633 5634
5675 5672 5670 5667 5665 5663 5660 5658 5655 5652 5649 5646 5643 5640 5638 5635 5634 5632 5630 5629 5627 5626 5625 5624 5623 5622 5621 5621 5620 5620 5620 5620 5621 5621 5622 5622 5624 5625 5625 5625 5626 5627 5628
5670 5667 5664 5661 5658 5656 5654 5650 5647 5644 5641 5638 5636 5634 5631 5629 5627 5625 5624 5622 5620 5620 5619 5618 5616 5615 5614 5614 5613 5613 5613 5614 5614 5615 5615 5616 5617 5618 5618 5619 5620 5621 5622
5663 5660 5657 5654 5651 5648 5646 5643 5639 5636 5634 5632 5630 5628 5625 5623 5620 5619 5617 5615 5614 5613 5613 5612 5610 5609 5608 5607 5607 5607 5607 5607 5608 5609 5610 5610 5611 5612 5612 5613 5614 5614 5616
5655 5653 5649 5646 5643 5641 5638 5635 5632 5630 5628 5626 5624 5622 5619 5617 5615 5613 5611 5609 5608 5607 5606 5605 5604 5603 5602 5601 5600 5600 5600 5601 5602 5602 5603 5604 5605 5605 5606 5606 5608 5608 5609
5647 5644 5640 5637 5635 5633 5630 5628 5625 5623 5621 5619 5617 5615 5613 5611 5609 5606 5604 5603 5602 5600 5599 5598 5597 5597 5596 5595 5594 5594 5594 5594 5594 5595 5596 5597 5598 5599 5599 5600 5602 5602 5602
5639 5636 5633 5630 5627 5625 5623 5620 5619 5617 5614 5612 5609 5607 5605 5603 5601 5599 5598 5596 5594 5593 5592 5591 5590 5590 5590 5589 5588 5588 5588 5588 5588 5588 5589 5590 5591 5592 5593 5594 5595 5596 5597
5631 5628 5625 5622 5620 5618 5616 5614 5612 5610 5607 5604 5602 5600 5598 5596 5594 5593 5591 5589 5588 5586 5585 5584 5584 5583 5583 5583 5583 5582 5582 5582 5582 5582 5582 5583 5584 5585 5586 5587 5588 5590 5590
5624 5621 5618 5615 5613 5611 5609 5607 5605 5603 5600 5597 5595 5593 5592 5590 5588 5586 5585 5584 5583 5581 5580 5579 5578 5577 5577 5578 5576 5575 5576 5576 5576 5575 5575 5576 5577 5578 5579 5581 5582 5583 5584
5616 5613 5610 5608 5606 5604 5602 5600 5598 5595 5593 5590 5588 5587 5585 5583 5581 5580 5579 5578 5577 5576 5575 5574 5573 5572 5572 5572 5571 5571 5570 5569 5569 5568 5570 5570 5571 5572 5573 5575 5576 5577 5578